Wind_Speed
40 45 49 46 46 47 49 49 50 51 52 52 54 55 55 56 56 56 54 52 49 47 46 44 43 40 41 41 40 40 41 41 44 41 37 32 31 34 37 38 42 47 53
46 44 42 42 44 45 47 49 50 50 51 53 53 54 54 54 53 51 48 46 45 44 42 39 35 31 32 33 35 38 40 39 41 41 35 34 33 31 35 38 38 44 49
39 39 39 42 44 46 46 47 49 51 52 52 52 52 52 49 47 45 44 42 38 34 32 32 31 32 33 31 32 35 36 36 36 38 36 33 33 32 34 36 34 37 46
37 39 41 43 44 44 46 48 50 50 51 52 51 50 47 44 42 40 36 33 31 33 33 33 34 35 36 35 33 33 33 33 32 34 35 32 32 30 30 31 32 33 41
39 41 42 42 42 44 47 48 49 50 50 49 48 44 40 40 36 33 32 34 37 38 36 34 34 33 33 32 35 30 26 28 29 25 25 27 28 28 28 27 27 29 37
40 40 40 42 44 46 47 48 49 48 48 47 42 38 36 33 33 34 34 36 36 35 37 36 37 35 37 32 33 33 30 28 27 31 32 30 26 18 23 23 25 29 38
40 39 41 43 45 46 47 47 47 47 46 41 35 34 33 33 34 33 32 35 37 37 39 41 41 39 37 35 30 31 32 34 34 35 33 31 32 25 22 27 28 34 36
38 39 42 44 45 45 45 45 46 45 41 35 32 33 35 33 34 33 32 35 37 35 33 34 36 37 37 33 31 29 31 30 33 35 37 33 31 19 20 29 27 29 33
38 41 42 44 44 44 44 44 43 41 34 30 30 33 34 33 34 33 33 34 32 32 36 36 36 35 27 24 26 24 22 26 29 30 33 34 32 27 27 24 26 24 29
40 41 42 42 43 43 43 42 41 36 31 30 31 31 34 34 32 30 31 31 30 38 35 36 24 23 23 21 20 20 24 20 22 23 23 23 23 25 27 27 27 26 24
40 41 41 40 41 42 42 40 37 32 30 29 30 31 31 31 31 32 32 31 27 35 29 23 13 10 13 14 14 16 14 12 15 17 21 23 24 23 24 24 28 27 21
40 40 39 39 39 39 39 36 31 30 29 29 30 31 30 30 33 33 32 25 23 22 22 16 9 5 8 11 11 13 11 11 13 15 18 17 19 16 25 22 26 21 23
38 38 38 37 37 37 36 30 28 28 29 29 30 31 31 31 33 29 30 21 17 14 19 11 10 7 4 5 7 9 13 12 14 16 15 15 12 16 24 26 19 20 36
38 37 37 37 35 35 30 26 27 27 27 28 29 29 25 31 34 30 31 23 12 11 11 14 9 4 2 4 5 7 9 7 13 12 16 15 17 18 24 17 19 28 30
37 37 37 36 36 33 25 25 26 24 25 26 26 24 29 32 33 31 28 25 13 9 12 10 12 5 4 3 3 6 6 6 14 15 17 18 20 22 21 16 22 22 23
37 37 37 35 36 29 25 23 23 24 24 25 25 23 29 32 31 27 23 23 12 9 8 9 11 9 8 5 2 5 4 12 13 16 18 16 18 22 22 20 17 22 21
36 36 35 36 32 25 24 25 25 22 26 26 25 26 29 29 26 23 25 19 10 8 6 5 6 4 8 6 4 2 3 11 15 17 20 18 28 19 16 19 22 31 24
35 35 33 35 28 23 23 23 24 27 29 27 27 28 26 25 24 26 21 17 7 8 7 7 4 3 7 7 7 7 13 15 17 16 20 19 17 17 16 15 18 24 23
34 35 32 33 25 22 22 21 23 26 28 29 28 25 23 23 26 24 18 14 8 6 6 6 8 9 5 8 10 12 12 17 19 18 20 19 17 15 15 18 20 20 21
32 33 31 31 24 20 21 21 22 25 27 28 28 28 25 24 26 23 20 15 10 7 6 6 7 7 9 11 12 15 18 18 19 19 17 17 16 14 14 17 19 21 22
32 32 30 29 23 20 20 21 22 24 26 27 29 29 28 28 29 27 23 17 12 8 5 5 6 8 8 10 14 17 20 21 21 21 18 18 17 17 17 18 18 20 21
31 30 30 29 24 20 19 20 22 24 26 27 28 27 26 27 29 28 24 19 14 10 8 5 6 8 9 9 13 17 19 23 22 21 19 21 20 19 17 16 17 20 22
30 29 29 28 24 21 19 20 21 23 24 26 27 27 26 30 30 27 22 19 17 15 12 9 8 10 12 11 13 17 19 22 25 24 24 24 22 20 18 18 21 24 26
29 28 29 28 24 23 21 20 20 21 23 24 25 25 26 30 29 22 19 18 18 18 17 14 9 0 13 13 14 18 20 21 24 27 28 26 24 21 19 19 23 25 26
28 26 28 27 24 24 22 20 20 20 21 22 23 23 24 29 23 18 16 17 19 20 21 21 17 8 3 11 17 19 22 23 25 26 26 26 25 22 21 21 21 25 24
27 25 27 26 23 23 23 22 21 20 20 21 21 22 24 26 19 18 16 14 16 17 19 22 23 20 9 8 16 20 23 24 24 25 25 25 25 25 24 23 27 26 24
Wind_Direction
286 290 296 299 301 301 301 303 304 305 306 307 306 306 306 305 305 303 302 300 299 297 295 294 290 288 284 282 279 276 273 272 273 272 269 263 254 255 252 243 238 236 237
292 296 300 301 302 303 304 304 305 305 305 307 307 307 308 306 305 303 302 301 299 297 294 293 294 292 287 283 278 275 270 268 268 269 266 266 264 255 254 250 238 233 233
299 300 302 304 305 305 305 306 306 307 308 308 309 309 308 306 305 304 301 299 299 299 298 296 297 295 293 290 285 278 272 266 261 262 265 266 266 262 254 252 245 233 230
303 304 306 307 307 308 308 309 309 310 310 311 311 309 308 308 307 305 302 300 297 298 296 294 293 292 291 290 287 283 272 264 258 259 265 266 266 260 258 250 243 235 229
307 307 308 308 308 309 311 310 310 311 311 311 310 309 309 311 309 307 303 299 299 300 298 298 296 292 293 291 293 284 273 265 257 258 269 270 264 263 258 255 244 228 228
308 308 309 309 310 311 311 312 312 312 312 311 311 309 308 310 308 306 304 301 301 300 295 294 293 289 288 284 280 271 268 266 263 262 266 265 259 262 250 244 233 221 221
309 309 310 311 312 313 313 313 314 313 313 313 310 309 308 311 311 310 307 307 305 303 296 290 288 285 289 288 274 269 255 244 257 259 260 261 253 248 248 243 238 223 220
310 312 314 314 314 313 314 315 314 314 314 311 309 310 311 315 315 315 314 306 306 304 300 297 291 285 281 284 277 269 251 240 245 253 246 247 250 236 247 247 230 228 229
315 316 316 315 316 317 316 316 316 316 313 309 314 315 316 318 317 316 312 312 315 310 303 299 295 282 280 279 271 258 255 247 259 255 243 246 245 245 252 233 221 225 214
317 317 318 318 318 318 318 319 318 316 316 315 317 319 319 319 316 317 317 321 311 311 308 304 299 282 276 272 254 249 263 262 246 242 237 233 237 235 234 228 222 231 228
319 320 320 320 319 319 320 322 318 318 319 319 319 321 320 320 329 330 324 316 319 317 314 318 309 280 269 255 251 256 253 245 236 235 229 239 238 223 222 216 225 217 223
320 321 321 322 322 322 321 321 319 321 321 322 322 323 325 331 332 331 324 314 323 321 325 326 327 301 269 254 241 234 239 237 230 224 230 227 214 228 224 209 214 198 206
322 322 323 325 325 324 324 322 323 323 322 325 326 329 333 331 327 327 330 320 323 320 325 323 325 313 270 222 216 221 233 224 227 222 216 211 205 215 179 192 188 200 162
324 325 327 328 326 327 325 327 327 327 327 327 331 331 331 319 324 324 335 329 314 307 312 316 320 313 250 221 244 261 272 216 199 187 200 186 178 176 181 185 171 163 171
328 328 329 329 331 330 330 333 333 334 334 330 329 331 321 321 323 325 329 323 305 315 305 285 298 274 226 228 266 272 259 229 201 193 189 182 188 179 181 187 166 155 159
329 330 331 333 334 333 332 334 337 337 336 332 330 328 321 326 327 328 328 324 309 283 311 305 276 255 219 219 257 303 271 191 194 188 187 176 176 182 177 177 167 168 171
331 331 334 336 334 334 334 334 337 342 338 335 332 332 334 333 336 337 333 338 316 313 289 305 307 257 210 205 195 137 54 177 176 176 178 169 175 179 181 196 188 191 181
333 334 335 336 336 337 338 338 339 342 342 343 343 341 344 339 342 343 346 347 321 289 284 257 282 266 217 198 188 172 126 153 149 171 178 165 164 161 167 168 176 176 180
336 336 336 338 337 337 338 338 341 343 346 348 350 350 351 351 347 352 351 351 340 280 270 265 250 244 228 199 192 179 171 155 157 156 167 172 173 174 176 180 185 184 187
338 336 336 339 337 335 338 342 343 345 351 352 354 355 358 357 359 8 4 357 347 313 275 261 255 245 237 215 197 191 187 188 184 182 187 191 190 188 181 182 184 185 187
339 337 338 341 337 334 337 343 343 344 350 351 353 353 356 352 355 358 357 355 354 344 299 268 248 244 232 220 205 202 200 195 192 195 199 192 188 189 185 178 180 182 188
338 338 340 343 340 334 333 338 339 343 347 348 350 352 354 346 358 2 358 359 355 346 326 297 252 234 224 212 203 201 200 199 194 193 197 190 190 189 190 188 185 179 180
338 338 341 343 342 339 333 331 336 341 344 347 350 353 352 351 3 3 3 5 2 353 343 319 269 235 221 210 199 193 190 192 192 194 191 191 189 192 195 192 186 180 178
339 341 343 346 346 346 341 338 338 340 343 347 354 355 353 357 7 7 10 12 15 16 20 25 32 202 211 201 194 189 184 184 185 186 189 191 192 195 193 189 188 185 181
342 343 345 348 348 350 349 347 346 344 346 353 357 357 358 3 11 17 21 29 35 34 32 34 39 54 92 191 194 182 179 182 183 188 194 198 198 199 197 193 189 189 191
344 345 348 350 349 350 351 354 355 354 354 359 1 1 4 12 20 29 33 40 44 50 45 42 47 49 73 120 162 173 178 186 193 199 205 206 206 202 200 200 198 199 198
Height
3102 3097 3092 3086 3079 3073 3067 3061 3054 3047 3041 3035 3029 3022 3015 3008 3001 2994 2988 2982 2977 2972 2967 2964 2961 2959 2956 2954 2953 2951 2950 2950 2946 2948 2951 2954 2958 2959 2961 2966 2971 2975 2979
3092 3086 3080 3074 3068 3062 3056 3049 3043 3036 3030 3023 3016 3008 3001 2994 2986 2979 2974 2968 2963 2959 2955 2951 2949 2947 2944 2942 2940 2938 2938 2938 2937 2936 2940 2941 2944 2949 2949 2951 2957 2962 2967
3080 3074 3069 3063 3057 3050 3044 3038 3031 3024 3017 3010 3003 2995 2988 2980 2974 2967 2961 2956 2952 2948 2945 2942 2940 2937 2934 2932 2929 2926 2926 2926 2927 2926 2928 2931 2932 2934 2938 2940 2944 2949 2955
3068 3063 3058 3052 3045 3039 3033 3026 3019 3012 3005 2997 2990 2982 2975 2969 2962 2956 2950 2945 2942 2939 2936 2933 2930 2927 2923 2921 2918 2916 2915 2915 2916 2917 2918 2920 2921 2924 2926 2930 2934 2938 2943
3059 3053 3047 3041 3035 3028 3022 3014 3007 3000 2993 2985 2978 2971 2964 2958 2951 2945 2940 2935 2931 2927 2924 2921 2918 2916 2913 2910 2908 2907 2905 2906 2907 2908 2910 2911 2911 2913 2917 2920 2923 2929 2932
3049 3042 3036 3030 3024 3017 3010 3003 2996 2989 2981 2974 2967 2960 2954 2949 2943 2937 2932 2925 2920 2916 2912 2909 2905 2903 2902 2901 2899 2897 2897 2898 2899 2900 2901 2902 2904 2905 2907 2910 2913 2918 2922
3038 3033 3026 3020 3013 3006 2999 2992 2984 2977 2969 2963 2957 2951 2945 2940 2933 2928 2922 2916 2911 2906 2901 2897 2893 2890 2888 2887 2886 2886 2887 2888 2889 2890 2891 2894 2895 2899 2901 2902 2904 2909 2912
3029 3023 3017 3010 3003 2996 2988 2981 2974 2966 2959 2953 2948 2942 2935 2930 2923 2918 2912 2906 2901 2895 2890 2885 2881 2878 2877 2875 2873 2873 2874 2876 2880 2881 2881 2883 2888 2891 2892 2895 2898 2902 2906
3020 3014 3007 3000 2993 2985 2978 2971 2963 2956 2950 2945 2939 2932 2925 2921 2914 2909 2903 2897 2890 2884 2880 2875 2870 2867 2866 2865 2863 2864 2865 2868 2869 2869 2870 2874 2879 2883 2885 2887 2891 2895 2898
3012 3006 2998 2991 2983 2975 2968 2961 2953 2947 2941 2936 2931 2924 2918 2912 2907 2901 2895 2887 2881 2875 2868 2861 2857 2855 2856 2856 2856 2857 2858 2859 2859 2860 2863 2867 2871 2874 2877 2880 2886 2889 2892
3004 2998 2990 2982 2974 2967 2959 2952 2944 2938 2933 2928 2923 2918 2912 2905 2898 2892 2887 2880 2874 2867 2860 2854 2848 2848 2849 2849 2851 2852 2853 2854 2854 2855 2858 2860 2863 2866 2870 2874 2879 2883 2888
2997 2990 2982 2975 2967 2959 2951 2945 2938 2931 2926 2921 2916 2911 2905 2898 2892 2886 2880 2874 2870 2864 2857 2851 2847 2845 2845 2845 2846 2847 2849 2850 2851 2853 2854 2856 2858 2862 2865 2870 2875 2880 2885
2989 2982 2974 2967 2960 2952 2944 2938 2932 2926 2920 2915 2909 2903 2896 2892 2887 2881 2874 2868 2864 2860 2856 2851 2848 2844 2843 2844 2845 2846 2847 2848 2848 2850 2852 2854 2857 2859 2862 2869 2873 2878 2883
2981 2974 2967 2960 2953 2946 2938 2932 2926 2921 2916 2910 2904 2898 2893 2887 2881 2875 2868 2862 2858 2856 2854 2850 2847 2845 2845 2844 2845 2845 2845 2843 2846 2849 2851 2853 2856 2859 2864 2868 2873 2878 2884
2974 2968 2961 2953 2946 2939 2933 2928 2922 2917 2911 2906 2901 2895 2888 2881 2875 2869 2862 2856 2853 2852 2849 2848 2845 2844 2843 2844 2844 2844 2843 2845 2846 2849 2851 2854 2857 2862 2866 2870 2875 2879 2887
2969 2962 2955 2947 2940 2933 2928 2924 2920 2914 2909 2903 2897 2891 2884 2877 2869 2863 2857 2852 2848 2847 2846 2844 2842 2842 2842 2843 2844 2843 2841 2843 2847 2849 2852 2855 2859 2863 2868 2873 2877 2883 2889
2964 2957 2950 2942 2936 2929 2925 2919 2915 2912 2904 2898 2893 2886 2879 2871 2865 2859 2853 2847 2844 2844 2843 2842 2840 2840 2840 2842 2843 2843 2842 2842 2845 2850 2854 2857 2862 2865 2869 2875 2880 2883 2890
2960 2953 2945 2939 2932 2926 2921 2917 2912 2906 2900 2895 2889 2882 2876 2868 2862 2856 2849 2845 2843 2841 2840 2840 2840 2839 2839 2840 2843 2844 2845 2846 2849 2853 2857 2860 2863 2868 2872 2875 2880 2885 2890
2955 2948 2942 2935 2929 2924 2919 2915 2910 2904 2898 2892 2885 2880 2874 2866 2860 2853 2848 2843 2839 2838 2838 2837 2837 2838 2839 2839 2841 2844 2847 2849 2852 2855 2859 2862 2865 2869 2873 2877 2881 2885 2890
2952 2946 2939 2932 2926 2921 2917 2913 2908 2902 2897 2890 2883 2877 2871 2865 2859 2853 2847 2842 2838 2836 2835 2835 2835 2835 2836 2838 2839 2842 2846 2849 2853 2856 2859 2863 2866 2870 2873 2877 2881 2885 2890
2949 2943 2936 2929 2923 2919 2915 2911 2906 2901 2895 2889 2883 2876 2870 2863 2858 2851 2845 2841 2837 2834 2833 2832 2832 2832 2833 2834 2837 2839 2843 2847 2851 2855 2858 2862 2866 2870 2874 2877 2881 2886 2890
2946 2939 2933 2926 2921 2916 2913 2909 2904 2899 2894 2888 2882 2876 2870 2863 2857 2850 2844 2839 2836 2833 2831 2830 2829 2829 2830 2831 2833 2836 2839 2844 2849 2853 2857 2861 2865 2869 2874 2877 2881 2885 2889
2943 2937 2932 2925 2919 2914 2910 2906 2902 2897 2892 2887 2881 2875 2869 2862 2855 2849 2843 2839 2835 2831 2828 2825 2825 2825 2826 2828 2830 2833 2837 2841 2846 2851 2855 2859 2864 2868 2872 2875 2879 2884 2888
2941 2935 2929 2922 2917 2912 2908 2903 2900 2895 2891 2885 2880 2874 2867 2860 2855 2849 2845 2840 2836 2831 2827 2823 2821 2820 2821 2824 2827 2830 2834 2839 2843 2848 2852 2857 2862 2866 2870 2874 2878 2883 2888
2938 2933 2927 2921 2916 2911 2906 2902 2898 2893 2889 2884 2879 2873 2868 2861 2856 2851 2847 2843 2839 2834 2830 2826 2823 2821 2820 2821 2825 2828 2833 2837 2842 2846 2851 2855 2860 2865 2869 2873 2877 2881 2886
2937 2931 2926 2920 2915 2911 2906 2901 2896 2892 2888 2883 2879 2873 2868 2862 2857 2853 2849 2846 2843 2839 2836 2832 2828 2824 2821 2821 2823 2828 2832 2837 2841 2845 2849 2853 2857 2861 2865 2870 2875 2879 2884